TIME,DELAY(SENSOR),PRES,OXYGEN,RAWTEMP,T(OPTODE),TCPHASE,FLUOR,BETA(BETA700),BETA(BETA412),BETA(BETA440),CDOM,C(CSC),ED(ED412.20),ED(ED444.00),ED(ED489.60),ED(ED554.30),LU(LU412.10),LU(LU443.90),LU(LU489.70),LU(LU554.70),COMP,TILTX,TILTY,CHECK
1365479991,5808,880.9099731445312000,33.8041000366210940,561.9077758789062000,4.4267539978027340,56.4907684326171900,55,99,99,78,82,15447,0,0,0,0,2147118893,2147774052,2147570797,2147569161,2527,2,13,5195
1365483587,5810,923.0300292968750000,38.9176216125488300,567.2199096679688000,4.2619209289550780,55.7497901916503900,55,98,99,77,83,15444,0,0,0,0,2147119881,2147777993,2147574372,2147568603,1334,2,13,5267
1365487187,5808,936.6799926757812000,39.6087493896484400,569.0811767578125000,4.2041091918945310,55.6632308959960940,55,97,100,78,81,15445,0,0,0,0,2147123785,2147772854,2147573723,2147569426,204,2,13,40116
1365490787,5810,963.4299926757812000,40.4512290954589840,571.2257080078125000,4.1374650001525880,55.5634689331054700,54,99,99,78,82,15443,0,0,0,0,2147121865,2147774875,2147571291,2147569627,66,2,13,62960
1365494387,5810,971.0200195312500000,40.3569908142089840,571.1787719726562000,4.1389241218566895,55.5739517211914060,55,99,99,78,82,15444,0,0,0,0,2147123081,2147772653,2147569563,2147569910,52,2,13,44781
1365497987,5813,968.4000244140625000,40.3872299194335940,571.9423828125000000,4.1151847839355470,55.5770606994628900,55,98,99,77,81,15444,0,0,0,0,2147121280,2147779638,2147570404,2147567049,27,2,13,5033
1365501587,5809,969.7000122070312000,41.1625404357910160,572.7678833007812000,4.0895137786865230,55.4764595031738300,55,99,102,78,82,15443,0,0,0,0,2147121490,2147774445,2147573613,2147568640,257,2,13,26859
1365505187,5812,971.9299926757812000,40.3441200256347660,573.5302124023438000,4.0658068656921390,55.6052207946777340,53,97,101,77,82,15443,0,0,0,0,2147122715,2147774171,2147571629,2147568740,121,2,13,39675
1365508787,5807,970.4500122070312000,40.1373710632324200,573.3444213867188000,4.0715870857238770,55.6322517395019500,55,98,100,77,82,15442,0,0,0,0,2147123702,2147773430,2147572608,2147569261,106,2,13,49840
1365512387,5808,969.4500122070312000,40.8595504760742200,574.2125244140625000,4.0445799827575680,55.5348205566406250,56,96,100,77,83,15443,0,0,0,0,2147124141,2147771602,2147571136,2147570861,131,2,13,55344
1365515987,5811,974.5900268554688000,41.1748580932617200,573.7753906250000000,4.0581779479980470,55.4832191467285160,55,98,102,78,82,15441,0,0,0,0,2147120768,2147772306,2147570322,2147571209,99,3,13,32136
1365519587,5808,971.2899780273438000,41.0906906127929700,574.1842041015625000,4.0454602241516110,55.4977188110351560,55,100,98,76,82,15442,0,0,0,0,2147125568,2147770752,2147573385,2147568054,3393,2,13,29354
1365523187,5810,971.5200195312500000,40.8595581054687500,574.0374755859375000,4.0500259399414060,55.5282096862793000,54,99,101,77,83,15436,0,0,0,0,2147121810,2147774363,2147574125,2147569334,3467,2,13,4202
1365526787,5811,985.6799926757812000,40.4612998962402340,572.4636230468750000,4.0989761352539060,55.5727195739746100,54,98,100,78,81,15437,0,0,0,0,2147120950,2147772982,2147572790,2147569408,225,2,13,20428
1365530387,5810,985.0200195312500000,40.8265800476074200,572.2490844726562000,4.1056461334228520,55.5161705017089840,55,99,100,77,81,15431,0,0,0,0,2147124909,2147774336,2147570011,2147571227,112,2,13,39431
1365533987,5807,982.8800048828125000,39.9385414123535160,572.2551269531250000,4.1054611206054690,55.6509017944335940,55,97,100,78,81,15433,0,0,0,0,2147125750,2147772425,2147571456,2147570093,157,2,13,53555
1365537587,5808,981.6900024414062000,40.2799301147460940,572.1904296875000000,4.1074709892272950,55.5948295593261700,54,98,99,77,83,15435,0,0,0,0,2147122934,2147772260,2147574866,2147567771,110,2,13,6858
1365541187,5807,983.8499755859375000,40.4772911071777340,572.2476806640625000,4.1056919097900390,55.5700683593750000,54,102,100,79,81,15433,0,0,0,0,2147125750,2147776548,2147571401,2147569024,94,2,13,2982
1365544787,5810,985.2600097656250000,40.1860198974609400,571.9248046875000000,4.1157298088073730,55.6067390441894500,55,97,103,77,81,15433,0,0,0,0,2147119497,2147772461,2147573924,2147566564,3263,2,13,23738
1365548387,5809,982.6400146484375000,39.6450119018554700,572.2232055664062000,4.1064529418945310,55.6901283264160160,54,99,100,78,82,15434,0,0,0,0,2147125302,2147774345,2147574043,2147566198,3351,2,13,23037
1365551987,5809,979.5100097656250000,39.9449081420898440,572.6619873046875000,4.0928077697753910,55.6502189636230500,54,97,100,78,82,15430,0,0,0,0,2147124708,2147775158,2147575067,2147567277,283,2,13,31352
1365555587,5810,981.9199829101562000,39.3224792480468750,572.7844848632812000,4.0889968872070310,55.7490501403808600,56,98,100,78,81,15427,0,0,0,0,2147126701,2147776621,2147570185,2147567222,76,2,13,52504
1365559187,5813,982.6900024414062000,40.1879501342773440,572.5960083007812000,4.0948600769042970,55.6149101257324200,55,110,99,77,83,15430,0,0,0,0,2147125019,2147772022,2147575177,2147570368,3509,2,13,24817
1365562787,5809,984.7399902343750000,40.7024803161621100,572.9531860351562000,4.0837521553039550,55.5402717590332000,55,98,100,77,82,15429,0,0,0,0,2147126930,2147775442,2147569718,2147567972,290,2,13,60534
1365566387,5811,977.7700195312500000,40.1352081298828100,573.6801757812500000,4.0611400604248050,55.6340217590332000,56,99,99,76,80,15426,0,0,0,0,2147123565,2147768877,2147574336,2147565248,549,2,13,58868
1365569987,5811,980.7899780273438000,41.0864486694335940,573.5587768554688000,4.0649151802062990,55.4950218200683600,55,97,100,78,83,15426,0,0,0,0,2147123958,2147771986,2147575222,2147566720,3359,2,13,7932
1365573587,5813,984.2000122070312000,41.0351791381835940,572.8928222656250000,4.0856299400329590,55.4946098327636700,55,98,99,78,81,15429,0,0,0,0,2147124260,2147771081,2147573092,2147568155,64,2,13,46419
1365577187,5810,979.4500122070312000,40.2764091491699200,573.6619262695312000,4.0617079734802250,55.6132011413574200,56,100,100,77,82,15427,0,0,0,0,2147124937,2147774582,2147570642,2147564864,3241,2,13,44001
1365580787,5809,987.2999877929688000,40.9767608642578100,573.7150878906250000,4.0600528717041020,55.5113601684570300,54,99,100,79,81,15427,0,0,0,0,2147123254,2147773595,2147575798,2147567872,39,2,13,65055
1365584387,5809,983.7999877929688000,39.5876998901367200,573.4348754882812000,4.0687680244445800,55.7104682922363300,56,99,100,78,83,15423,0,0,0,0,2147121828,2147770093,2147574720,2147569078,115,2,13,57636
1365587987,5809,982.2700195312500000,40.8716392517089840,573.7269287109375000,4.0596852302551270,55.5246315002441400,54,98,100,79,82,15426,0,0,0,0,2147121883,2147776658,2147572425,2147569554,82,3,13,54252
1365591587,5810,979.0200195312500000,40.9578514099121100,574.1530761718750000,4.0464291572570800,55.5204200744628900,55,98,100,79,81,15425,0,0,0,0,2147122843,2147770560,2147570633,2147570761,71,2,13,11956
1365595187,5810,986.0800170898438000,41.0270500183105500,574.3604125976562000,4.0399799346923830,55.5124015808105500,55,98,100,79,81,15425,0,0,0,0,2147121773,2147770825,2147572873,2147566765,97,2,13,38401
1365598787,5808,986.3900146484375000,40.6407318115234400,573.1597290039062000,4.0773282051086430,55.5504798889160160,55,98,100,78,82,15416,0,0,0,0,2147124681,2147769645,2147569389,2147566628,790,2,13,54364
1365602387,5809,979.2000122070312000,39.8032989501953100,573.8187866210938000,4.0568280220031740,55.6892204284668000,55,99,100,77,80,15421,0,0,0,0,2147122011,2147775296,2147571629,2147569152,141,3,13,47435
1365605987,5808,984.3900146484375000,40.9771804809570300,573.9133911132812000,4.0538849830627440,55.5154190063476560,55,98,100,77,81,15418,0,0,0,0,2147122825,2147777865,2147574756,2147567268,243,3,13,5188
1365609587,5807,987.1500244140625000,40.6266288757324200,573.0288696289062000,4.0813961029052730,55.5560798645019500,55,96,101,77,81,15419,0,0,0,0,2147126838,2147772370,2147571940,2147568457,3418,2,13,44566
1365613187,5809,979.1799926757812000,40.4584007263183600,574.1124877929688000,4.0476889610290530,55.5892906188964840,55,99,99,76,82,15421,0,0,0,0,2147122907,2147773997,2147573458,2147567277,297,2,13,24309
1365616787,5810,980.6799926757812000,40.8514213562011700,574.4848022460938000,4.0361080169677730,55.5364913940429700,56,98,99,77,81,15419,0,0,0,0,2147122688,2147768018,2147576356,2147567067,315,2,13,12967
1365620387,5810,988.3699951171875000,40.7179794311523440,573.2999877929688000,4.0729660987854000,55.5417709350585940,55,98,100,77,81,15417,0,0,0,0,2147122852,2147768941,2147570413,2147570404,513,2,13,59180
1365623987,5811,993.6199951171875000,40.8874282836914060,573.0172119140625000,4.0817599296569820,55.5137596130371100,54,97,99,77,82,15418,0,0,0,0,2147123958,2147771062,2147575926,2147568329,49,2,13,28029
1365625555,5809,988.8599853515625000,40.7874908447265600,573.0532226562500000,4.0806431770324710,55.5294799804687500,54,117,98,78,82,15418,0,0,0,0,2147124041,2147773211,2147572918,2147569435,193,2,13,59657
